• In Portugal
  • List of Countries
  • For 7 days
  • Water Temperature
  • Satellite Maps
  • Weather Map
  • Weather Widgets
  • user-avatar
    Login

    Hourly Weather Malanje

    Today, 24 April, Tuesday

    Time Temperature Precipitation Wind Pressure Humidity
    00:00 +19°C° 0 mm 0 mps 665 mmHg 76%
    01:00 +20°C° 0 mm 1 mps 665 mmHg 76%
    02:00 +20°C° 0 mm 1 mps 665 mmHg 77%
    03:00 +20°C° 0 mm 1 mps 665 mmHg 78%
    04:00 +17°C° 0 mm 0 mps 665 mmHg 79%
    05:00 +20°C° 0 mm 1 mps 666 mmHg 79%
    06:00 +20°C° 0 mm 1 mps 666 mmHg 80%
    07:00 +21°C° 0 mm 1 mps 667 mmHg 77%
    08:00 +23°C° 0 mm 1 mps 667 mmHg 70%
    09:00 +25°C° 0 mm 2 mps 667 mmHg 64%
    10:00 +28°C° 0 mm 2 mps 668 mmHg 58%
    11:00 +29°C° 0 mm 2 mps 667 mmHg 54%
    12:00 +29°C° 0 mm 3 mps 667 mmHg 50%
    13:00 +30°C° 0 mm 3 mps 666 mmHg 46%
    14:00 +30°C° 0 mm 2 mps 666 mmHg 49%
    15:00 +30°C° 0 mm 2 mps 666 mmHg 51%
    16:00 +30°C° 0 mm 1 mps 665 mmHg 54%
    17:00 +28°C° 0 mm 1 mps 665 mmHg 58%
    18:00 +25°C° 0 mm 1 mps 665 mmHg 63%
    19:00 +21°C° 0 mm 0 mps 665 mmHg 68%
    20:00 +21°C° 0 mm 0 mps 665 mmHg 69%
    21:00 +20°C° 0 mm 0 mps 666 mmHg 70%
    22:00 +22°C° 0 mm 1 mps 666 mmHg 71%
    23:00 +21°C° 0 mm 1 mps 666 mmHg 72%

    Tomorrow, 25 April, Wednesday

    Time Temperature Precipitation Wind Pressure Humidity
    00:00 +21°C° 0 mm 1 mps 666 mmHg 73%
    01:00 +20°C° 0 mm 1 mps 665 mmHg 74%
    02:00 +18°C° 0 mm 0 mps 665 mmHg 77%
    03:00 +17°C° 0 mm 0 mps 665 mmHg 80%
    04:00 +17°C° 0 mm 0 mps 665 mmHg 83%
    05:00 +17°C° 0 mm 0 mps 665 mmHg 83%
    06:00 +20°C° 0 mm 1 mps 666 mmHg 83%
    07:00 +20°C° 0 mm 1 mps 666 mmHg 83%
    08:00 +22°C° 0 mm 1 mps 667 mmHg 74%
    09:00 +25°C° 0 mm 1 mps 667 mmHg 66%
    10:00 +27°C° 0 mm 2 mps 668 mmHg 58%
    11:00 +28°C° 0 mm 2 mps 667 mmHg 55%
    12:00 +29°C° 0 mm 2 mps 667 mmHg 51%
    13:00 +30°C° 0 mm 2 mps 666 mmHg 48%
    14:00 +30°C° 0 mm 1 mps 666 mmHg 51%
    15:00 +29°C° 0 mm 1 mps 666 mmHg 53%
    16:00 +29°C° 0 mm 1 mps 665 mmHg 55%
    17:00 +27°C° 0 mm 1 mps 665 mmHg 60%
    18:00 +25°C° 0 mm 1 mps 665 mmHg 65%
    19:00 +23°C° 0 mm 1 mps 665 mmHg 70%
    20:00 +21°C° 0 mm 0 mps 666 mmHg 71%
    21:00 +20°C° 0 mm 0 mps 666 mmHg 73%
    22:00 +20°C° 0 mm 0 mps 666 mmHg 75%
    23:00 +19°C° 0 mm 0 mps 666 mmHg 78%

    Day after tomorrow, 26 April, Thursday

    Time Temperature Precipitation Wind Pressure Humidity
    00:00 +21°C° 0 mm 1 mps 666 mmHg 82%
    01:00 +20°C° 0 mm 1 mps 665 mmHg 86%
    02:00 +20°C° 0 mm 1 mps 665 mmHg 89%
    03:00 +19°C° 0 mm 1 mps 665 mmHg 92%
    04:00 +19°C° 0 mm 1 mps 665 mmHg 95%
    05:00 +19°C° 0 mm 1 mps 665 mmHg 93%
    06:00 +20°C° 0 mm 1 mps 666 mmHg 91%
    07:00 +20°C° 0 mm 1 mps 666 mmHg 90%
    08:00 +23°C° 0.2 mm 1 mps 667 mmHg 80%
    09:00 +25°C° 0.2 mm 1 mps 668 mmHg 71%
    10:00 +28°C° 0.2 mm 1 mps 669 mmHg 61%
    11:00 +28°C° 0.1 mm 1 mps 668 mmHg 58%
    12:00 +29°C° 0.1 mm 1 mps 667 mmHg 54%
    13:00 +29°C° 0.1 mm 1 mps 666 mmHg 51%
    14:00 +29°C° 0 mm 1 mps 666 mmHg 54%
    15:00 +28°C° 0 mm 1 mps 665 mmHg 57%
    16:00 +28°C° 0 mm 1 mps 665 mmHg 60%
    17:00 +26°C° 0 mm 1 mps 665 mmHg 64%
    18:00 +25°C° 0 mm 1 mps 665 mmHg 67%
    19:00 +23°C° 0 mm 1 mps 665 mmHg 71%
    20:00 +23°C° 0 mm 1 mps 666 mmHg 72%
    21:00 +20°C° 0 mm 0 mps 666 mmHg 73%
    22:00 +20°C° 0 mm 0 mps 666 mmHg 74%
    23:00 +19°C° 0 mm 0 mps 666 mmHg 76%

    27 April, Friday

    Time Temperature Precipitation Wind Pressure Humidity
    00:00 +21°C° 0 mm 1 mps 666 mmHg 78%
    01:00 +20°C° 0 mm 1 mps 666 mmHg 80%
    02:00 +20°C° 0 mm 1 mps 665 mmHg 84%
    03:00 +19°C° 0 mm 1 mps 665 mmHg 88%
    04:00 +17°C° 0 mm 0 mps 665 mmHg 93%
    05:00 +17°C° 0 mm 0 mps 665 mmHg 91%
    06:00 +18°C° 0 mm 0 mps 666 mmHg 90%
    07:00 +19°C° 0 mm 0 mps 667 mmHg 89%
    08:00 +21°C° 0.1 mm 0 mps 667 mmHg 79%
    09:00 +26°C° 0.1 mm 1 mps 668 mmHg 69%
    10:00 +28°C° 0.1 mm 1 mps 669 mmHg 59%
    11:00 +29°C° 0 mm 1 mps 668 mmHg 54%
    12:00 +30°C° 0 mm 1 mps 667 mmHg 50%
    13:00 +30°C° 0 mm 1 mps 667 mmHg 46%
    14:00 +30°C° 0 mm 1 mps 666 mmHg 48%
    15:00 +30°C° 0 mm 1 mps 666 mmHg 50%
    16:00 +29°C° 0 mm 1 mps 665 mmHg 52%
    17:00 +27°C° 0 mm 1 mps 665 mmHg 58%
    18:00 +25°C° 0 mm 1 mps 665 mmHg 63%
    19:00 +23°C° 0 mm 1 mps 665 mmHg 69%
    20:00 +23°C° 0 mm 1 mps 665 mmHg 70%
    21:00 +22°C° 0 mm 1 mps 666 mmHg 71%
    22:00 +20°C° 0 mm 0 mps 666 mmHg 72%
    23:00 +19°C° 0 mm 0 mps 666 mmHg 73%

    28 April, Saturday

    Time Temperature Precipitation Wind Pressure Humidity
    00:00 +19°C° 0 mm 0 mps 665 mmHg 74%
    01:00 +19°C° 0 mm 0 mps 665 mmHg 75%
    02:00 +18°C° 0 mm 0 mps 665 mmHg 76%
    03:00 +18°C° 0 mm 0 mps 665 mmHg 78%
    04:00 +19°C° 0 mm 1 mps 665 mmHg 80%
    05:00 +20°C° 0 mm 1 mps 665 mmHg 79%
    06:00 +20°C° 0 mm 1 mps 666 mmHg 78%
    07:00 +21°C° 0 mm 1 mps 667 mmHg 78%
    08:00 +23°C° 0 mm 1 mps 667 mmHg 70%
    09:00 +25°C° 0 mm 2 mps 668 mmHg 62%
    10:00 +27°C° 0 mm 2 mps 669 mmHg 55%
    11:00 +28°C° 0 mm 2 mps 668 mmHg 51%
    12:00 +29°C° 0 mm 2 mps 667 mmHg 48%
    13:00 +31°C° 0 mm 2 mps 667 mmHg 44%
    14:00 +30°C° 0 mm 2 mps 666 mmHg 46%
    15:00 +30°C° 0 mm 1 mps 666 mmHg 48%
    16:00 +30°C° 0 mm 1 mps 666 mmHg 50%
    17:00 +28°C° 0 mm 1 mps 666 mmHg 55%
    18:00 +26°C° 0 mm 1 mps 666 mmHg 61%
    19:00 +22°C° 0 mm 0 mps 666 mmHg 66%
    20:00 +23°C° 0 mm 1 mps 666 mmHg 67%
    21:00 +22°C° 0 mm 1 mps 666 mmHg 68%
    22:00 +22°C° 0 mm 1 mps 666 mmHg 70%
    23:00 +21°C° 0 mm 1 mps 666 mmHg 70%

    29 April, Sunday

    Time Temperature Precipitation Wind Pressure Humidity
    00:00 +21°C° 0 mm 1 mps 666 mmHg 71%
    01:00 +19°C° 0 mm 0 mps 665 mmHg 72%
    02:00 +20°C° 0 mm 1 mps 665 mmHg 74%
    03:00 +20°C° 0 mm 1 mps 665 mmHg 77%
    04:00 +19°C° 0 mm 1 mps 665 mmHg 79%
    05:00 +19°C° 0 mm 1 mps 665 mmHg 79%
    06:00 +19°C° 0 mm 1 mps 666 mmHg 79%
    07:00 +20°C° 0 mm 1 mps 667 mmHg 78%
    08:00 +21°C° 0 mm 2 mps 667 mmHg 70%
    09:00 +24°C° 0 mm 2 mps 668 mmHg 62%
    10:00 +27°C° 0 mm 2 mps 668 mmHg 53%
    11:00 +28°C° 0 mm 2 mps 668 mmHg 50%
    12:00 +29°C° 0 mm 2 mps 667 mmHg 46%
    13:00 +30°C° 0 mm 2 mps 666 mmHg 42%
    14:00 +30°C° 0 mm 2 mps 666 mmHg 44%
    15:00 +29°C° 0 mm 1 mps 666 mmHg 46%
    16:00 +29°C° 0 mm 1 mps 665 mmHg 48%
    17:00 +27°C° 0 mm 1 mps 665 mmHg 53%
    18:00 +25°C° 0 mm 1 mps 665 mmHg 57%
    19:00 +23°C° 0 mm 1 mps 665 mmHg 61%
    20:00 +23°C° 0 mm 1 mps 665 mmHg 62%
    21:00 +22°C° 0 mm 1 mps 666 mmHg 62%
    22:00 +21°C° 0 mm 1 mps 666 mmHg 63%
    23:00 +21°C° 0 mm 1 mps 666 mmHg 64%
    Show more